Погода в Владимире

Погода в Владимире : погода сейчас, прогноз погоды и архив. Всё, что Вы хотите узнать о погоде в Владимире!

Хотите узнать прогноз погоды в Владимире? Тогда Вам сюда: Погода в Владимире

Поиск расширенной информации на нашем сайте:

Другие новости

Новости СМИ2

Главная страница сайта

Новости сайта

03.07.2017

Напоминаем, что на нашем специализированном сайте Метеоцентр.Азия вы можете получить высокодетализированные автоматические прогнозы погоды по пунктам России, СНГ и мира в авиационном формате (включающие направление и скорость ветра, видимость, явления погоды, количество и форму облачности, нижнюю и верхнюю границу облачности).


Погода в Владимире - сегодня

Время (UTC), дата Ветер
(°,м/с) 
Видим.   Явления Облачность Т
(°С)
Тd
(°С)
f(%) Тe
(°С)
Pmin
(гПа)
dP
(гПа)
Po
(мм)
O2
(г/м3)
Тmin Tmax R s Состояние
почвы
15 13.01.18 230 (ЮЗ) 10 км  слаб. ливневой снег  10/10 540 м кучево-дожд. 
[Cb cap]
-9.7 -11.6 86 -13  1041.5  -0.4  764  320    -8  0.2     
18 13.01.18 270 (З) 10 км  слаб. снег{ливн. осадки}  10/10 400 м 
[Frnb|Ns]
-8.5 -10.5 85 -10  1040.6  -0.8  763  319           
21 13.01.18 320 (СЗ) 10 км  слаб. снег  10/10 420 м 
[Frnb|Ns]
-7.9 -10.5 82 -11  1040.3  -0.2  763  318           
00 14.01.18 270 (З) 10 км  слаб. снег  10/10 450 м 
[Ns]
-7.8 -9.8 86 -9  1040.1  -0.2  763  318           
03 14.01.18 290 (З) 4000 м  слаб. снег  10/10 210 м 
[Frnb|Ns]
-7.4 -8.6 91 -9  1039.9  -0.3  763  317  -9.7    0.2  равномерный
сухой снег
100% 
06 14.01.18 300 (СЗ) 4000 м  слаб. снег  10/10 180 м 
[Frnb|Ns]
-7 -8.2 91 -8  1039.5  -0.3  763  316           
09 14.01.18 320 (СЗ) 4000 м  дымка{снег}  10/10 180 м 
[St]
-5.8 -7.2 90 -7  1039.8  0.4  763  315           
12 14.01.18 320 (СЗ) 4000 м  дымка{снег}  10/10 240 м 
[St]
-5 -6.7 88 -6  1039.5  -0.2  763  314           
15 14.01.18 330 (СЗ) 4000 м  дымка  10/10 240 м 
[St]
-4.9 -6.3 90 -6  1039.5  763  314    -4.9  0.0     
18 14.01.18 030 (СВ) 4000 м  дымка  10/10 210 м 
[St]
-4.5 -5.4 93 -7  1039.3  -0.1  763  313           
21 14.01.18 030 (СВ) 4000 м  дымка  10/10 210 м 
[St]
-4.3 -5.3 93 -6  1039.3  -0.1  763  313           
00 15.01.18 050 (СВ) 4000 м  слаб. снег  10/10 210 м 
[Frnb|Ns]
-4.2 -5.2 93 -4  1039  -0.2  763  313           
03 15.01.18 050 (СВ) 4000 м  слаб. снег  10/10 180 м 
[Frnb|Ns]
-4.4 -5.3 93 -6  1038.3  -0.8  762  313  -4.9    0.0  равномерный
сухой снег
100% 
06 15.01.18 100 (В) 1000 м  в посл. час снег  10/10 100 м 
[St]
-4.9 -5.6 95 -4  1038.8  0.5  762  313           
09 15.01.18 140 (ЮВ) 4000 м  слаб. снег  10/10 240 м 
[Frnb|Ns]
-4.1 -5.9 87 -4  1038.4  -0.4  762  312           
12 15.01.18 170 (Ю) 10 км  слаб. снег  10/10 270 м 
[Frnb|Ns]
-3.8 -5.7 87 -3  1037.9  -0.5  762  312           
15 15.01.18 170 (Ю) 10 км  слаб. снег  10/10 300 м 
[Ns]
-4.1 -6 87 -4  1037.1  -0.8  761  312    -3.8  0.0     
18 15.01.18 170 (Ю) 10 км  слаб. снег  10/10 360 м 
[Ns]
-4.5 -6.5 86 -4  1036.5  -0.6  761  312           
21 15.01.18 180 (Ю) 10 км  слаб. снег  10/10 360 м 
[Ns]
-5 -7.2 85 -5  1036.2  -0.3  760  313           
00 16.01.18 180 (Ю) 10 км  слаб. снег  10/10 330 м 
[Ns]
-5.4 -7.6 84 -7  1036  -0.3  760  313           
03 16.01.18 150 (ЮВ) 4000 м  слаб. снег  10/10 360 м 
[Ns]
-6.2 -8 87 -8  1034.3  -0.7  759  314  -6.3    0.0     
06 16.01.18 150 (ЮВ) 4000 м  дымка{снег}  10/10 270 м 
[Sc]
-7.1 -8.6 89 -7  1033.6  -0.7  758  315  -8.3         
09 16.01.18 170 (Ю) 10 км    10/10 330 м 
[Sc]
-5.8 -8.6 81 -7  1032.8  -0.7  758  313           
12 16.01.18 160 (Ю) 10 км    10/10 360 м 
[Sc]
-6.3 -8.8 82 -8  1031.2  -1.5  757  313           
15 16.01.18 150 (ЮВ) 10 км    10/10 360 м 
[Sc]
-7.7 -10.2 82 -9  1030.1  -1.2  756  314    -5.7  0.0     
Время (UTC), дата Ветер
(°,м/с) 
Видим.   Явления Облачность Т
(°С)
Тd
(°С)
f(%) Тe
(°С)
Pmin
(гПа)
dP
(гПа)
Po
(мм)
O2
(г/м3)
Тmin Tmax R s Состояние
почвы

Для получения пояснительной информации подведите курсор к названию столбца.

ПОГОДА в Владимире - архив

Всё, что Вы хотите узнать о погоде в Владимире - удобно и подробно!

Выберите нужную дату (начиная с 1 января 2015* года) и нажмите кнопку "Найти".
Будут отображены архивные сводки погоды по пункту Владимир, начиная с указанной даты.


Отображать данные в формате CSV (для использования в таблицах Excel)


Внимание! Наш архив погоды предназначен исключительно для личного некоммерческого использования в познавательных целях. Если Вам необходимы официальные справки о состоянии погоды (для производственных, юридических, коммерческих и т.п. целей), обращайтесь в органы Росгидромета.

*Примечание: данная дата относится к архиву по метеостанциям СССР (Россия, СНГ, Балтия).
Архив по метеостанциям Зарубежной Европы и Азии (кроме Китая) хранится 10 дней, по другим регионам земного шара (Китай, Африка, Америка, Австралия, Океания) - 1 день.

Владимир - район местоположения метеостанции


Название, широта, долгота, высота метеостанции:
Владимир 56.1°ш. 40.3°д. 172 м над ур. моря [Российская Федерация]

Дополнительная информация

В oтличие oт бoльшинства пoгoдных сайтoв мы публикуем пoдрoбную метеoинфoрмацию в детальнoм прoфессиoнальнoм фoрмате.

Характеристики температуры и влажнoсти вoздуха измеряются на высoте 2 м в тени вдали oт зданий и деревьев.
Скoрoсть ветра измеряется на высoте 10 м (на урoвне рoста челoвека скoрoсть ветра ниже в 1.5-2 раза). Если метеoстанция нахoдится в гoрoде или в лесу, тo скoрoсть ветра занижена на 2-4 м/с пo сравнению с oткрытым местoм. Скoрoсть ветра над акватoриями крупных рек и oзёр, а также на вершинах хoлмoв на 2-5 м/с выше, чем в oбычных услoвиях.
Атмoсфернoе давление в разных тoчках местнoсти мoжет значительнo oтличаться oт давления на метеoстанции, в зависимoсти oт услoвий рельефа (при пoдъёме на 10 м давление пoнижается примернo на 1 мм рт.ст.).